#timestamp,LO_Frequency,Hit,StdDev 
1681938015.3,286047003.5,N
1681938035.1,286047002.5,N
1681938055.9,286047000.5,N
1681938075.7,286047004.1,N
1681938095.5,286047006.3,Y
1681938115.4,286047003.1,P
1681938135.2,286047006.8,P
1681938155.1,286047010.4,P
1681938156.0,286047010.4,Y
1681938175.8,286047001.4,P
1681938195.6,286047004.3,N
1681938215.5,286047001.9,N
1681938235.3,286046998.3,N
1681938255.1,286047005.6,N
1681938275.9,286047004.0,N
1681938295.7,286047000.8,N
1681938315.6,286046999.2,N
1681938335.4,286047001.6,N
1681938355.2,286047003.4,N
1681938375.1,286047006.3,N
1681938376.0,286047006.3,N
1681938395.8,286047006.1,N
1681938415.7,286047004.7,N
1681938435.5,286047012.0,Y
1681938455.3,286047011.5,P
1681938475.2,286047016.8,P
1681938495.0,286047019.1,P
1681938495.9,286047019.1,Y
1681938515.7,286047009.7,P
1681938535.6,286047013.6,P
1681938555.4,286047011.7,P
1681938575.3,286047013.8,Y
1681938595.1,286047000.9,P
1681938615.8,286047002.2,N
1681938635.7,286047000.4,N
1681938655.5,286047002.0,N
1681938675.3,286047000.4,N
1681938695.2,286047003.0,N
1681938715.0,286047004.4,N
1681938715.9,286047004.4,N
1681938735.8,286047005.3,N
1681938755.6,286047005.3,N
1681938775.4,286047006.7,N
1681938795.3,286047004.3,N
1681938815.1,286047011.9,Y
1681938835.8,286047000.0,P
1681938855.7,286046996.5,N
1681938875.5,286046993.4,N
1681938895.4,286046992.1,N
1681938915.2,286046998.0,N
1681938935.0,286047003.8,N
1681938935.9,286047003.8,N
1681938955.8,286047009.5,N
1681938975.6,286047004.9,N
1681938995.4,286047007.1,N
1681939015.3,286047009.7,N
1681939035.1,286047006.5,N
1681939055.9,286047009.1,N
1681939075.7,286047005.8,N
1681939095.5,286047010.7,N
1681939115.4,286047007.7,N
1681939135.2,286047009.0,N
1681939155.0,286047012.2,N
1681939155.9,286047012.2,N
1681939175.8,286047011.8,N
1681939195.6,286047012.5,N
1681939215.5,286047021.7,Y
1681939235.3,286047012.5,P
1681939255.1,286047016.8,P
1681939275.9,286047017.8,P
1681939295.7,286047016.6,Y
1681939315.6,286047005.7,P
1681939335.4,286047005.2,N
1681939355.2,286047007.6,N
1681939375.1,286047009.5,Y
1681939376.0,286047009.5,P
1681939395.8,286047005.2,P
1681939415.7,286047006.9,P
1681939435.5,286047002.0,N
1681939455.3,286047006.9,N
1681939475.2,286047006.5,N
1681939495.0,286047006.8,Y
1681939495.9,286047006.8,P
1681939515.8,286046998.4,P
1681939535.6,286047000.4,N
1681939555.4,286047000.1,N
1681939575.3,286047003.3,N
1681939595.1,286047007.0,N
1681939615.8,286047008.0,N
1681939635.7,286047009.7,N
1681939655.5,286047008.5,N
1681939675.4,286047006.2,N
1681939695.2,286047007.9,N
1681939715.0,286047008.5,N
1681939715.9,286047008.5,N
1681939735.8,286047010.6,Y
1681939755.6,286047000.3,P
1681939775.4,286047001.5,N
1681939795.3,286047004.1,N
1681939815.1,286047005.6,N
1681939835.9,286047003.4,N
1681939855.7,286047003.4,N
1681939875.5,286047007.9,Y
1681939895.4,286047005.0,P
1681939915.2,286047006.7,P
1681939935.0,286047009.0,P
1681939936.0,286047009.0,Y
1681939955.8,286047002.2,P
1681939975.6,286047004.2,N
1681939995.5,286047003.6,N
1681940015.3,286047006.6,Y
1681940035.1,286047004.6,P
1681940055.9,286047006.2,P
1681940075.7,286047006.9,P
1681940095.6,286047005.1,Y
1681940115.4,286046999.2,P
1681940135.2,286046998.1,N
1681940155.1,286046999.5,N
1681940156.0,286046999.5,N
1681940175.8,286047000.5,N
1681940195.6,286046997.5,N
1681940215.5,286046997.6,N
1681940235.3,286046998.2,N
1681940255.2,286047001.1,N
1681940275.9,286047001.7,N
1681940295.7,286047004.1,N
1681940315.6,286047003.9,N
1681940335.4,286047006.0,N
1681940355.2,286047003.7,N
1681940375.1,286047003.2,N
1681940376.0,286047003.2,N
1681940395.8,286047003.2,N
1681940415.7,286047002.7,N
1681940435.5,286047002.8,N
1681940455.3,286046998.5,N
1681940475.2,286047002.3,N
1681940495.0,286047004.8,N
1681940495.9,286047004.8,N
1681940515.7,286047004.8,N
1681940535.6,286047009.0,Y
1681940555.4,286047008.1,P
1681940575.3,286047007.9,N
1681940595.1,286047008.2,N
1681940596.0,286047008.2,Y
1681940615.8,286047002.5,P
1681940635.7,286047002.2,N
1681940655.5,286047004.6,N
1681940675.4,286047004.7,N
1681940695.2,286047006.1,Y
1681940715.0,286047002.3,P
1681940715.9,286047002.3,N
1681940735.8,286047003.5,P
1681940755.6,286047007.4,Y
1681940775.4,286047001.8,P
1681940795.3,286046999.8,N
1681940815.1,286046997.1,N
1681940835.9,286046996.9,N
1681940855.7,286046998.5,N
1681940875.5,286047005.6,N
1681940895.4,286047003.5,N
1681940945.2,286047008.7,E
1681940955.2,286047004.3,N
1681940975.9,286046997.9,P
1681940995.7,286046999.1,N
1681941015.6,286047003.9,N
1681941035.4,286047003.1,N
1681941055.2,286047005.8,N
1681941075.1,286047008.5,N
1681941076.0,286047008.5,N
1681941095.8,286047007.7,N
1681941115.7,286047007.8,N
1681941135.5,286047008.2,N
1681941155.3,286047006.9,N
1681941175.2,286047010.2,N
1681941195.0,286047008.0,N
1681941195.9,286047008.0,N
1681941215.8,286047006.6,N
1681941235.6,286047009.4,N
1681941255.4,286047008.1,N
1681941275.3,286047008.0,N
1681941295.1,286047010.7,Y
1681941315.9,286046999.7,P
1681941335.7,286047004.0,N
1681941355.5,286047005.1,N
1681941375.4,286047008.9,Y
1681941395.2,286047008.7,P
1681941415.0,286047008.1,P
1681941416.0,286047008.1,P
1681941435.8,286047012.2,Y
1681941455.6,286047008.1,P
1681941475.5,286047008.4,P
1681941495.3,286047007.1,P
1681941515.1,286047003.4,Y
1681941535.9,286046995.9,P
1681941555.7,286046994.8,N
1681941575.6,286046996.3,N
1681941595.4,286046996.6,N
